| time (UTC) | temp F | wind direction | speed MPH | gust MPH | rain 1hr in | rain 24hr in | rain mn in | humidity % | barometer mb |
| 20260831231612 | 61 | 292 | 0.0 | 0.0 | 0.00 | 0.00 | 0.00 | 81 | 1018.3 |
| 20260831230112 | 62 | 292 | 0.0 | 0.0 | 0.00 | 0.00 | 0.00 | 80 | 1018.6 |
| 20260831224611 | 63 | 292 | 0.0 | 0.0 | 0.00 | 0.00 | 0.00 | 79 | 1018.7 |
| 20260831223111 | 63 | 292 | 0.0 | 0.0 | 0.00 | 0.00 | 0.00 | 79 | 1018.7 |
| 20260831221611 | 64 | 292 | 0.0 | 0.0 | 0.00 | 0.00 | 0.00 | 78 | 1018.6 |
| 20260831220111 | 64 | 291 | 0.0 | 0.0 | 0.00 | 0.00 | 0.00 | 76 | 1018.5 |
| 20260831213111 | 65 | 291 | 0.0 | 0.0 | 0.00 | 0.00 | 0.00 | 74 | 1018.4 |
| 20260831211610 | 66 | 291 | 0.0 | 0.0 | 0.00 | 0.00 | 0.00 | 70 | 1018.2 |
| 20260831204610 | 66 | 292 | 1.0 | 2.0 | 0.00 | 0.00 | 0.00 | 69 | 1017.8 |
| 20260831201610 | 67 | 298 | 1.0 | 4.0 | 0.00 | 0.00 | 0.00 | 66 | 1016.9 |
| 20260831200110 | 67 | 294 | 1.0 | 3.0 | 0.00 | 0.00 | 0.00 | 66 | 1016.7 |
| 20260831194610 | 67 | 310 | 2.0 | 4.0 | 0.00 | 0.00 | 0.00 | 66 | 1016.8 |
| 20260831193110 | 67 | 316 | 4.0 | 9.0 | 0.00 | 0.00 | 0.00 | 66 | 1016.4 |
| 20260831191610 | 67 | 314 | 3.0 | 5.0 | 0.00 | 0.00 | 0.00 | 66 | 1016.5 |
| 20260831190109 | 67 | 317 | 2.0 | 4.0 | 0.00 | 0.00 | 0.00 | 66 | 1016.2 |
| 20260831184609 | 67 | 297 | 2.0 | 4.0 | 0.00 | 0.00 | 0.00 | 65 | 1016.3 |
| 20260831183109 | 67 | 305 | 2.0 | 4.0 | 0.00 | 0.00 | 0.00 | 64 | 1016.2 |
| 20260831181609 | 68 | 326 | 2.0 | 4.0 | 0.00 | 0.00 | 0.00 | 64 | 1015.8 |
| 20260831180109 | 69 | 318 | 0.0 | 0.0 | 0.00 | 0.00 | 0.00 | 65 | 1015.7 |
| 20260831173109 | 72 | 318 | 0.0 | 0.0 | 0.00 | 0.00 | 0.00 | 58 | 1015.4 |
| 20260831171611 | 73 | 317 | 1.0 | 4.0 | 0.00 | 0.00 | 0.00 | 55 | 1015.3 |
| 20260831170109 | 74 | 304 | 1.0 | 4.0 | 0.00 | 0.00 | 0.00 | 55 | 1015.4 |
| 20260831164609 | 75 | 273 | 2.0 | 6.0 | 0.00 | 0.00 | 0.00 | 53 | 1015.5 |
| 20260831163109 | 76 | 327 | 3.0 | 7.0 | 0.00 | 0.00 | 0.00 | 52 | 1015.6 |
| 20260831161609 | 78 | 304 | 3.0 | 10.0 | 0.00 | 0.00 | 0.00 | 49 | 1015.5 |
| 20260831154609 | 79 | 279 | 3.0 | 9.0 | 0.00 | 0.00 | 0.00 | 49 | 1015.4 |
| 20260831153108 | 79 | 259 | 4.0 | 10.0 | 0.00 | 0.00 | 0.00 | 50 | 1015.4 |
| 20260831151609 | 79 | 282 | 6.0 | 13.0 | 0.00 | 0.00 | 0.00 | 49 | 1015.5 |
| 20260831150113 | 80 | 268 | 6.0 | 13.0 | 0.00 | 0.00 | 0.00 | 50 | 1015.4 |
| 20260831144613 | 80 | 271 | 3.0 | 10.0 | 0.00 | 0.00 | 0.00 | 50 | 1015.4 |
| 20260831143113 | 81 | 201 | 4.0 | 11.0 | 0.00 | 0.00 | 0.00 | 50 | 1015.3 |
| 20260831141613 | 78 | 252 | 5.0 | 9.0 | 0.00 | 0.00 | 0.00 | 55 | 1015.2 |
| 20260831140113 | 79 | 274 | 3.0 | 11.0 | 0.00 | 0.00 | 0.00 | 55 | 1015.2 |
| 20260831134613 | 80 | 296 | 5.0 | 8.0 | 0.00 | 0.00 | 0.00 | 53 | 1015.2 |
| 20260831133112 | 78 | 279 | 4.0 | 11.0 | 0.00 | 0.00 | 0.00 | 56 | 1015.3 |
| 20260831131613 | 79 | 323 | 5.0 | 11.0 | 0.00 | 0.00 | 0.00 | 55 | 1015.4 |
| 20260831130112 | 80 | 305 | 4.0 | 9.0 | 0.00 | 0.00 | 0.00 | 55 | 1015.4 |
| 20260831123112 | 78 | 297 | 4.0 | 9.0 | 0.00 | 0.00 | 0.00 | 58 | 1015.4 |
| 20260831121612 | 79 | 269 | 6.0 | 10.0 | 0.00 | 0.00 | 0.00 | 58 | 1015.4 |
| 20260831120112 | 77 | 319 | 1.0 | 7.0 | 0.00 | 0.00 | 0.00 | 61 | 1015.6 |
| 20260831114612 | 78 | 205 | 4.0 | 7.0 | 0.00 | 0.00 | 0.00 | 64 | 1015.5 |
| 20260831110111 | 74 | 211 | 5.0 | 7.0 | 0.00 | 0.00 | 0.00 | 72 | 1015.9 |
| 20260831104611 | 73 | 198 | 3.0 | 6.0 | 0.00 | 0.00 | 0.00 | 74 | 1015.9 |
| 20260831103111 | 80 | 228 | 2.0 | 4.0 | 0.00 | 0.00 | 0.00 | 50 | 1014.9 |
| 20260831101611 | 72 | 209 | 2.0 | 5.0 | 0.00 | 0.00 | 0.00 | 78 | 1015.8 |
| 20260831100112 | 71 | 196 | 1.0 | 4.0 | 0.00 | 0.00 | 0.00 | 80 | 1015.9 |
| 20260831094611 | 70 | 191 | 1.0 | 4.0 | 0.00 | 0.00 | 0.00 | 80 | 1016.0 |
| 20260831093112 | 69 | 246 | 0.0 | 0.0 | 0.00 | 0.00 | 0.00 | 80 | 1015.9 |
| 20260831090110 | 69 | 203 | 3.0 | 6.0 | 0.00 | 0.00 | 0.00 | 77 | 1015.7 |
| 20260831084610 | 70 | 220 | 3.0 | 7.0 | 0.00 | 0.00 | 0.00 | 80 | 1015.9 |
| 20260831081610 | 67 | 308 | 0.0 | 1.0 | 0.00 | 0.00 | 0.00 | 88 | 1015.2 |
| 20260831080110 | 66 | 227 | 0.0 | 2.0 | 0.00 | 0.00 | 0.00 | 88 | 1015.0 |
| 20260831074610 | 65 | 245 | 1.0 | 4.0 | 0.00 | 0.00 | 0.00 | 87 | 1015.0 |
| 20260831073110 | 66 | 155 | 0.0 | 0.0 | 0.00 | 0.00 | 0.00 | 86 | 1015.1 |
| 20260831071610 | 66 | 209 | 0.0 | 4.0 | 0.00 | 0.00 | 0.00 | 84 | 1015.2 |
| 20260831070110 | 66 | 225 | 0.0 | 2.0 | 0.00 | 0.00 | 0.00 | 84 | 1015.0 |
| 20260831064610 | 67 | 277 | 0.0 | 0.0 | 0.00 | 0.00 | 0.00 | 82 | 1014.8 |
| 20260831061609 | 66 | 286 | 0.0 | 0.0 | 0.00 | 0.00 | 0.00 | 82 | 1014.7 |
| 20260831060110 | 66 | 287 | 1.0 | 6.0 | 0.00 | 0.00 | 0.00 | 81 | 1014.8 |
| 20260831054609 | 66 | 151 | 0.0 | 0.0 | 0.00 | 0.00 | 0.00 | 81 | 1014.7 |
| 20260831053110 | 66 | 173 | 0.0 | 4.0 | 0.00 | 0.00 | 0.00 | 81 | 1014.6 |
| 20260831051609 | 66 | 340 | 0.0 | 2.0 | 0.00 | 0.00 | 0.00 | 81 | 1014.7 |
| 20260831050109 | 66 | 5 | 1.0 | 3.0 | 0.00 | 0.00 | 0.00 | 80 | 1014.5 |
| 20260831044609 | 66 | 5 | 1.0 | 2.0 | 0.00 | 0.00 | 0.00 | 78 | 1014.7 |
| 20260831043109 | 66 | 289 | 1.0 | 4.0 | 0.00 | 0.00 | 0.00 | 78 | 1014.6 |
| 20260831040114 | 65 | 299 | 2.0 | 4.0 | 0.00 | 0.00 | 0.00 | 77 | 1015.4 |
| 20260831034614 | 64 | 300 | 2.0 | 4.0 | 0.00 | 0.00 | 0.00 | 76 | 1015.5 |
| 20260831031613 | 63 | 320 | 2.0 | 4.0 | 0.00 | 0.00 | 0.00 | 78 | 1015.2 |
| 20260831030113 | 63 | 319 | 3.0 | 4.0 | 0.00 | 0.00 | 0.00 | 79 | 1015.1 |
| 20260831024613 | 63 | 327 | 0.0 | 0.0 | 0.00 | 0.00 | 0.00 | 77 | 1015.1 |
| 20260831023113 | 63 | 296 | 3.0 | 4.0 | 0.00 | 0.00 | 0.00 | 78 | 1015.1 |
| 20260831020113 | 63 | 319 | 3.0 | 4.0 | 0.00 | 0.00 | 0.00 | 79 | 1015.2 |
| 20260831014613 | 62 | 306 | 4.0 | 7.0 | 0.00 | 0.00 | 0.00 | 79 | 1015.3 |
| 20260831013113 | 62 | 296 | 3.0 | 5.0 | 0.00 | 0.00 | 0.00 | 80 | 1015.2 |
| 20260831011614 | 62 | 328 | 0.0 | 2.0 | 0.00 | 0.00 | 0.00 | 80 | 1015.3 |
| 20260831010112 | 63 | 296 | 1.0 | 2.0 | 0.00 | 0.00 | 0.00 | 79 | 1015.4 |
| 20260831004612 | 63 | 99 | 0.0 | 0.0 | 0.00 | 0.00 | 0.00 | 77 | 1015.4 |
| 20260831003112 | 63 | 71 | 0.0 | 0.0 | 0.00 | 0.00 | 0.00 | 78 | 1015.5 |
| 20260831001612 | 63 | 251 | 2.0 | 3.0 | 0.00 | 0.00 | 0.00 | 78 | 1015.7 |
| 20260831000112 | 63 | 306 | 1.0 | 2.0 | 0.00 | 0.00 | 0.00 | 80 | 1015.6 |
| 20260830234612 | 63 | 306 | 0.0 | 1.0 | 0.00 | 0.00 | 0.00 | 79 | 1015.7 |